Previsão horária em Senhor do Bonfim

Hoje, 26 Novembro, Quinta-feira

Tempo Temperatura Precipitação Vento Pressão Humidade
00:00 +20°C° 0 mm 3 m/s 714 mmHg 90%
01:00 +20°C° 0 mm 3 m/s 713 mmHg 92%
02:00 +20°C° 0 mm 3 m/s 713 mmHg 94%
03:00 +19°C° 0 mm 3 m/s 712 mmHg 96%
04:00 +20°C° 0 mm 3 m/s 713 mmHg 94%
05:00 +20°C° 0 mm 3 m/s 713 mmHg 92%
06:00 +20°C° 0 mm 4 m/s 714 mmHg 91%
07:00 +21°C° 0.1 mm 4 m/s 714 mmHg 86%
08:00 +22°C° 0.1 mm 4 m/s 714 mmHg 81%
09:00 +23°C° 0.1 mm 4 m/s 714 mmHg 76%
10:00 +26°C° 0 mm 4 m/s 714 mmHg 69%
11:00 +28°C° 0 mm 4 m/s 714 mmHg 61%
12:00 +29°C° 0 mm 4 m/s 714 mmHg 53%
13:00 +30°C° 0 mm 4 m/s 713 mmHg 51%
14:00 +30°C° 0 mm 4 m/s 713 mmHg 49%
15:00 +32°C° 0 mm 4 m/s 712 mmHg 47%
16:00 +29°C° 0 mm 3 m/s 712 mmHg 52%
17:00 +28°C° 0 mm 3 m/s 712 mmHg 58%
18:00 +26°C° 0 mm 2 m/s 713 mmHg 63%
19:00 +25°C° 0.1 mm 3 m/s 713 mmHg 70%
20:00 +24°C° 0.1 mm 3 m/s 713 mmHg 78%
21:00 +22°C° 0.1 mm 4 m/s 714 mmHg 85%
22:00 +22°C° 0 mm 3 m/s 714 mmHg 87%
23:00 +21°C° 0 mm 3 m/s 713 mmHg 88%

Amanhã, 27 Novembro, Sexta-feira

Tempo Temperatura Precipitação Vento Pressão Humidade
00:00 +21°C° 0 mm 3 m/s 713 mmHg 90%
01:00 +21°C° 0 mm 3 m/s 713 mmHg 90%
02:00 +21°C° 0 mm 4 m/s 713 mmHg 90%
03:00 +21°C° 0 mm 4 m/s 713 mmHg 89%
04:00 +21°C° 0.1 mm 4 m/s 713 mmHg 89%
05:00 +21°C° 0.1 mm 4 m/s 713 mmHg 89%
06:00 +21°C° 0.1 mm 4 m/s 714 mmHg 88%
07:00 +22°C° 0.1 mm 4 m/s 714 mmHg 82%
08:00 +23°C° 0.1 mm 4 m/s 715 mmHg 76%
09:00 +25°C° 0.1 mm 4 m/s 715 mmHg 69%
10:00 +27°C° 0 mm 4 m/s 715 mmHg 65%
11:00 +28°C° 0 mm 4 m/s 714 mmHg 60%
12:00 +29°C° 0 mm 4 m/s 714 mmHg 55%
13:00 +29°C° 0 mm 4 m/s 714 mmHg 54%
14:00 +30°C° 0 mm 4 m/s 713 mmHg 52%
15:00 +30°C° 0 mm 4 m/s 713 mmHg 51%
16:00 +29°C° 0 mm 4 m/s 713 mmHg 56%
17:00 +27°C° 0 mm 3 m/s 713 mmHg 60%
18:00 +26°C° 0 mm 3 m/s 713 mmHg 65%
19:00 +25°C° 0 mm 3 m/s 713 mmHg 70%
20:00 +24°C° 0 mm 3 m/s 713 mmHg 75%
21:00 +24°C° 0 mm 3 m/s 714 mmHg 80%
22:00 +22°C° 0 mm 3 m/s 714 mmHg 83%
23:00 +22°C° 0 mm 3 m/s 714 mmHg 87%

Depois de amanhã, 28 Novembro, Sábado

Tempo Temperatura Precipitação Vento Pressão Humidade
00:00 +21°C° 0 mm 3 m/s 713 mmHg 90%
01:00 +21°C° 0 mm 3 m/s 713 mmHg 91%
02:00 +21°C° 0 mm 3 m/s 713 mmHg 92%
03:00 +20°C° 0 mm 4 m/s 713 mmHg 93%
04:00 +21°C° 0.1 mm 4 m/s 713 mmHg 92%
05:00 +21°C° 0.1 mm 4 m/s 713 mmHg 91%
06:00 +21°C° 0.1 mm 4 m/s 714 mmHg 90%
07:00 +22°C° 0.1 mm 4 m/s 714 mmHg 85%
08:00 +23°C° 0.1 mm 4 m/s 715 mmHg 80%
09:00 +25°C° 0.1 mm 4 m/s 715 mmHg 75%
10:00 +27°C° 0 mm 5 m/s 715 mmHg 68%
11:00 +28°C° 0 mm 5 m/s 714 mmHg 60%
12:00 +30°C° 0 mm 5 m/s 714 mmHg 52%
13:00 +30°C° 0 mm 5 m/s 714 mmHg 51%
14:00 +32°C° 0 mm 5 m/s 713 mmHg 50%
15:00 +32°C° 0 mm 5 m/s 713 mmHg 49%
16:00 +29°C° 0.1 mm 4 m/s 713 mmHg 56%
17:00 +27°C° 0.1 mm 4 m/s 713 mmHg 64%
18:00 +25°C° 0.1 mm 4 m/s 713 mmHg 72%
19:00 +25°C° 0 mm 4 m/s 714 mmHg 74%
20:00 +23°C° 0 mm 4 m/s 714 mmHg 76%
21:00 +22°C° 0 mm 4 m/s 714 mmHg 79%
22:00 +22°C° 0 mm 3 m/s 714 mmHg 81%
23:00 +21°C° 0 mm 3 m/s 714 mmHg 84%

29 Novembro, Domingo

Tempo Temperatura Precipitação Vento Pressão Humidade
00:00 +20°C° 0 mm 3 m/s 714 mmHg 86%
01:00 +20°C° 0 mm 3 m/s 714 mmHg 89%
02:00 +20°C° 0 mm 3 m/s 713 mmHg 92%
03:00 +19°C° 0 mm 3 m/s 713 mmHg 94%
04:00 +20°C° 0 mm 3 m/s 713 mmHg 94%
05:00 +20°C° 0 mm 3 m/s 713 mmHg 94%
06:00 +20°C° 0 mm 3 m/s 714 mmHg 94%
07:00 +21°C° 0.1 mm 4 m/s 714 mmHg 88%
08:00 +22°C° 0.1 mm 4 m/s 715 mmHg 82%
09:00 +23°C° 0.1 mm 4 m/s 715 mmHg 76%
10:00 +26°C° 0 mm 4 m/s 715 mmHg 66%
11:00 +28°C° 0 mm 5 m/s 714 mmHg 56%
12:00 +30°C° 0 mm 5 m/s 714 mmHg 46%
13:00 +32°C° 0 mm 5 m/s 714 mmHg 43%
14:00 +32°C° 0 mm 5 m/s 713 mmHg 40%
15:00 +32°C° 0 mm 5 m/s 712 mmHg 37%
16:00 +30°C° 0 mm 4 m/s 712 mmHg 43%
17:00 +28°C° 0 mm 4 m/s 712 mmHg 49%
18:00 +26°C° 0 mm 3 m/s 712 mmHg 56%
19:00 +26°C° 0 mm 3 m/s 713 mmHg 60%
20:00 +25°C° 0 mm 3 m/s 713 mmHg 64%
21:00 +24°C° 0 mm 3 m/s 714 mmHg 68%
22:00 +22°C° 0 mm 3 m/s 714 mmHg 73%
23:00 +21°C° 0 mm 3 m/s 714 mmHg 78%

30 Novembro, Segunda-feira

Tempo Temperatura Precipitação Vento Pressão Humidade
00:00 +20°C° 0 mm 3 m/s 714 mmHg 83%
01:00 +20°C° 0 mm 2 m/s 713 mmHg 86%
02:00 +19°C° 0 mm 2 m/s 713 mmHg 90%
03:00 +19°C° 0 mm 2 m/s 713 mmHg 93%
04:00 +19°C° 0 mm 2 m/s 713 mmHg 91%
05:00 +20°C° 0 mm 2 m/s 713 mmHg 90%
06:00 +20°C° 0 mm 3 m/s 713 mmHg 89%
07:00 +22°C° 0 mm 3 m/s 714 mmHg 81%
08:00 +24°C° 0 mm 3 m/s 714 mmHg 74%
09:00 +26°C° 0 mm 4 m/s 715 mmHg 66%
10:00 +28°C° 0 mm 4 m/s 714 mmHg 60%
11:00 +29°C° 0 mm 4 m/s 714 mmHg 54%
12:00 +32°C° 0 mm 4 m/s 714 mmHg 48%
13:00 +32°C° 0 mm 4 m/s 713 mmHg 47%
14:00 +32°C° 0 mm 4 m/s 712 mmHg 46%
15:00 +32°C° 0 mm 5 m/s 711 mmHg 45%
16:00 +30°C° 0 mm 4 m/s 711 mmHg 50%
17:00 +28°C° 0 mm 3 m/s 711 mmHg 55%
18:00 +26°C° 0 mm 2 m/s 711 mmHg 60%
19:00 +25°C° 0 mm 2 m/s 712 mmHg 61%
20:00 +25°C° 0 mm 1 m/s 712 mmHg 63%
21:00 +24°C° 0 mm 1 m/s 713 mmHg 64%
22:00 +23°C° 0 mm 2 m/s 713 mmHg 70%
23:00 +21°C° 0 mm 2 m/s 712 mmHg 77%

1 Dezembro, Terça-feira

Tempo Temperatura Precipitação Vento Pressão Humidade
00:00 +21°C° 0 mm 2 m/s 712 mmHg 83%
01:00 +20°C° 0 mm 2 m/s 712 mmHg 86%
02:00 +20°C° 0 mm 2 m/s 712 mmHg 89%
03:00 +19°C° 0 mm 2 m/s 711 mmHg 93%
04:00 +20°C° 0 mm 3 m/s 712 mmHg 92%
05:00 +20°C° 0 mm 3 m/s 712 mmHg 90%
06:00 +20°C° 0 mm 3 m/s 713 mmHg 89%
07:00 +21°C° 0.1 mm 3 m/s 713 mmHg 87%
08:00 +21°C° 0.1 mm 3 m/s 714 mmHg 84%
09:00 +22°C° 0.1 mm 3 m/s 714 mmHg 82%
10:00 +25°C° 0 mm 3 m/s 714 mmHg 73%
11:00 +27°C° 0 mm 3 m/s 714 mmHg 64%
12:00 +29°C° 0 mm 3 m/s 714 mmHg 55%
13:00 +29°C° 0 mm 3 m/s 713 mmHg 52%
14:00 +30°C° 0 mm 3 m/s 713 mmHg 49%
15:00 +30°C° 0 mm 3 m/s 712 mmHg 46%
16:00 +29°C° 0 mm 3 m/s 712 mmHg 51%
17:00 +27°C° 0 mm 2 m/s 712 mmHg 56%
18:00 +25°C° 0 mm 2 m/s 711 mmHg 61%
19:00 +25°C° 0 mm 1 m/s 712 mmHg 61%
20:00 +24°C° 0 mm 1 m/s 712 mmHg 62%
21:00 +22°C° 0 mm 0 m/s 713 mmHg 62%
22:00 +23°C° 0 mm 1 m/s 713 mmHg 69%
23:00 +22°C° 0 mm 1 m/s 712 mmHg 76%
Mostrar mais

Necessitamos do seu Consentimento

A Meteoprog e os seus Fornecedores de Serviços podem armazenar e aceder a dados pessoais como cookies, identificadores do dispositivo ou outras tecnologias semelhantes existentes no seu dispositivo e processar estes dados para personalizar conteúdos e anúncios, assim como funcionalidades nas redes sociais e análise de tráfego.

  • Armazenar e/ou aceder a informações no seu dispositivo

    Os cookies, identificadores do dispositivo ou outras informações podem ser armazenados ou acedidos no seu dispositivo, para os fins acima indicados.

  • Anúncios e conteúdos personalizados, medição de anúncios e conteúdos, dados sobre o público-alvo e desenvolvimento de produtos

    Os anúncios e os conteúdos podem ser personalizados com base num perfil. Podem ser adicionados dados adicionais para uma maior personalização dos anúncios e dos conteúdos. A eficácia dos anúncios e dos conteúdos pode ser medida. Podem ser obtidas informações sobre o público que visualizou os anúncios e os conteúdos. Estes dados podem ser usados para desenvolver ou melhorar sistemas, softwares ou a experiência do utilizador.

Ao clicar em "Eu concordo”, permitirá o uso de cookies, identificadores do dispositivo e web beacons mencionados ou outras tecnologias semelhantes. As configurações do navegador do seu dispositivo podem ser alteradas.

Para certos fins, podem ser invocados interesses legítimos ao invés de consentimento. Pode ler mais informação sobre este assunto na nossa Política de Privacidade e Cookies.